sat.trackr.live / text

‹ back to catalog

NUSANTARA SATU

NORAD 44048 · 2019-009A

PAYLOAD ACTIVE UNKNOWN

§ Identity

Operator
Country
INDO
Launch date
2019-02-22
Launch site
AFETR
Launch vehicle
Mass (kg)
RCS (m²)

Purposes: comms

External: N2YO · Heavens-Above · Gunter

§ Orbital elements

Epoch: 2026-09-04T04:51:38.801088Z

Period
1,436.13 min
Inclination
0.0247°
Eccentricity
0.0004556
Mean motion
1.00269599 rev/d
Perigee alt
35,768.0 km
Apogee alt
35,806.4 km
Semi-major
42,165.3 km
B*
0.0000e+0
RAAN
134.0325°
Arg perigee
15.4448°
Mean anomaly
52.7722°
Rev number
2,756

§ Raw data

NUSANTARA SATU1 44048U 19009A   26247.20253242 -.00000240  00000+0  00000+0 0  99952 44048   0.0247 134.0325 0004556  15.4448  52.7722  1.00269599 27565

JSON: /api/v1/satellites/44048 · /tle

For live sub-satellite position, see the globe view (requires WebGL).

§ Visibility from observer

Set your observer location to see the next 7 days of passes ≥ 10°. The values pass through the URL so the page stays shareable.

No JS? Fill the form by hand. The geolocation button needs JavaScript.